Fairfield, OH

2:49 AM EST on February 23, 2017 (GMT -0500)
Butler County Regional

Weather History for KHAO - August, 2013

Change the Weather History Date:

Friday, August 23, 2013

  Actual Average (KLUK) Record (KLUK)
Temperature  
Mean Temperature 73 °F -  
Max Temperature 86 °F 84 °F 102 °F (2007)
Min Temperature 62 °F 64 °F 48 °F (1950)
Cooling Degree Days 8    
Growing Degree Days 23 (Base 50)    
Moisture  
Dew Point 66 °F    
Average Humidity 86    
Maximum Humidity 100    
Minimum Humidity 53    
Precipitation  
Precipitation 0.28 in - - ()
Sea Level Pressure  
Sea Level Pressure 30.10 in    
Wind  
Wind Speed 2 mph (NNW)    
Max Wind Speed 9 mph    
Max Gust Speed -    
Visibility 5 miles    
Events Fog , Rain , Thunderstorm    
Averages and records for this station are not official NWS values.
T = Trace of Precipitation, MM = Missing Value Source: NWS Daily Summary

Daily Weather History Graph

Daily Weather History Graph

Search for Another Location

Airport or City:

Trip Planner

Search our weather history database for the weather conditions in past years. The results will help you decide how hot, cold, wet, or windy it might be!

Date:

Astronomy

Aug. 23, 2013 Rise Set
Actual Time 6:58 AM EDT 8:22 PM EDT
Civil Twilight 6:30 AM EDT 8:50 PM EDT
Nautical Twilight 5:56 AM EDT 9:23 PM EDT
Astronomical Twilight 5:21 AM EDT 9:58 PM EDT
Moon 9:41 PM EDT 9:51 AM EDT
Length of Visible Light 14h 19m
Length of Day
13h 23m
Waning Gibbous, 91% of the Moon is Illuminated
Aug 23
Waning Gibbous
Aug 28
Last Quarter
Sep 5
New
Sep 12
First Quarter
Sep 19
Full

Hourly Weather History & Observations

Time (EDT) Temp. Heat Index Dew Point Humidity Pressure Visibility Wind Dir Wind Speed Gust Speed Precip Events Conditions
12:53 AM 66.9 °F - 64.9 °F 93% 30.08 in 8.0 mi Calm Calm - N/A   Clear
1:53 AM 69.1 °F - 66.9 °F 93% 30.08 in 9.0 mi Calm Calm - 0.00 in   Mostly Cloudy
2:19 AM 69.8 °F - 66.2 °F 88% 30.09 in 9.0 mi NW 3.5 mph - N/A Thunderstorm Overcast
2:34 AM 69.8 °F - 68.0 °F 94% 30.09 in 4.0 mi NNW 8.1 mph - 0.03 in Rain Rain
2:43 AM 69.8 °F - 68.0 °F 94% 30.08 in 1.8 mi NNW 3.5 mph - 0.14 in Rain Heavy Rain
2:50 AM 69.8 °F - 68.0 °F 94% 30.08 in 2.5 mi Variable 3.5 mph - 0.16 in Rain Rain
2:53 AM 70.0 °F - 68.0 °F 93% 30.06 in 2.5 mi Calm Calm - 0.17 in Rain Rain
3:05 AM 69.8 °F - 68.0 °F 94% 30.08 in 6.0 mi Calm Calm - 0.01 in Rain Light Rain
3:22 AM 69.8 °F - 68.0 °F 94% 30.09 in 2.0 mi Variable 3.5 mph - 0.10 in Rain Light Rain
3:32 AM 69.8 °F - 68.0 °F 94% 30.08 in 4.0 mi Calm Calm - 0.11 in Rain Light Rain
3:53 AM 69.1 °F - 68.0 °F 96% 30.06 in 6.0 mi Calm Calm - 0.11 in   Overcast
4:53 AM 68.0 °F - 66.9 °F 96% 30.07 in 4.0 mi Calm Calm - N/A   Scattered Clouds
5:18 AM 66.2 °F - 66.2 °F 100% 30.08 in 2.5 mi NW 3.5 mph - N/A   Partly Cloudy
5:29 AM 66.2 °F - 64.4 °F 94% 30.07 in 3.0 mi NNW 3.5 mph - N/A   Clear
5:53 AM 66.0 °F - 64.9 °F 96% 30.06 in 3.0 mi Calm Calm - N/A   Clear
6:06 AM 66.2 °F - 64.4 °F 94% 30.08 in 2.0 mi Calm Calm - N/A   Clear
6:09 AM 64.4 °F - 64.4 °F 100% 30.08 in 0.8 mi Calm Calm - N/A   Clear
6:12 AM 64.4 °F - 64.4 °F 100% 30.08 in 0.5 mi Calm Calm - N/A Fog Fog
6:28 AM 64.4 °F - 64.4 °F 100% 30.08 in 0.2 mi Calm Calm - N/A Fog Fog
6:53 AM 64.0 °F - 63.0 °F 96% 30.07 in 0.2 mi Calm Calm - N/A Fog Fog
6:59 AM 64.4 °F - 62.6 °F 94% 30.09 in 1.2 mi Calm Calm - N/A   Scattered Clouds
7:08 AM 62.6 °F - 62.6 °F 100% 30.09 in 0.2 mi Calm Calm - N/A Fog Fog
7:22 AM 64.4 °F - 62.6 °F 94% 30.10 in 0.2 mi Calm Calm - N/A Fog Fog
7:38 AM 64.4 °F - 64.4 °F 100% 30.10 in 1.0 mi Calm Calm - N/A   Mist
7:47 AM 66.2 °F - 66.2 °F 100% 30.10 in 2.0 mi Calm Calm - N/A   Mostly Cloudy
7:48 AM 66.9 °F - 66.0 °F 97% 30.09 in 2.0 mi Calm Calm - N/A   Mostly Cloudy
8:05 AM 66.2 °F - 66.2 °F 100% 30.11 in 3.0 mi North 3.5 mph - N/A   Overcast
8:15 AM 66.2 °F - 66.2 °F 100% 30.11 in 2.5 mi NNE 3.5 mph - N/A   Overcast
8:53 AM 66.9 °F - 66.0 °F 97% 30.12 in 2.0 mi North 5.8 mph - N/A   Overcast
9:51 AM 68.0 °F - 66.2 °F 94% 30.12 in 3.0 mi NNE 5.8 mph - N/A   Overcast
9:53 AM 68.0 °F - 66.9 °F 96% 30.12 in 3.0 mi NNE 6.9 mph - N/A   Overcast
10:02 AM 69.8 °F - 66.2 °F 88% 30.13 in 4.0 mi Variable 3.5 mph - N/A   Overcast
10:33 AM 71.6 °F - 66.2 °F 83% 30.13 in 6.0 mi NNW 4.6 mph - N/A   Overcast
10:42 AM 71.6 °F - 66.2 °F 83% 30.13 in 6.0 mi NNW 4.6 mph - N/A   Haze
10:53 AM 72.0 °F - 66.9 °F 84% 30.12 in 7.0 mi Calm Calm - N/A   Overcast
11:53 AM 75.0 °F - 66.9 °F 76% 30.12 in 7.0 mi Calm Calm - N/A   Mostly Cloudy
12:02 PM 75.2 °F - 66.2 °F 73% 30.13 in 8.0 mi Variable 4.6 mph - N/A   Partly Cloudy
12:24 PM 77.0 °F - 68.0 °F 74% 30.13 in 8.0 mi Calm Calm - N/A   Mostly Cloudy
12:53 PM 79.0 °F - 66.9 °F 66% 30.12 in 9.0 mi Calm Calm - N/A   Mostly Cloudy
1:04 PM 78.8 °F - 66.2 °F 65% 30.12 in 9.0 mi Calm Calm - N/A   Scattered Clouds
1:53 PM 81.0 °F 83.3 °F 66.9 °F 62% 30.11 in 10.0 mi WNW 3.5 mph - N/A   Mostly Cloudy
2:53 PM 81.0 °F 83.0 °F 66.0 °F 60% 30.10 in 10.0 mi Variable 3.5 mph - N/A   Scattered Clouds
3:53 PM 84.9 °F 87.1 °F 66.0 °F 53% 30.08 in 10.0 mi Variable 4.6 mph - N/A   Partly Cloudy
4:53 PM 84.9 °F 87.6 °F 66.9 °F 55% 30.07 in 10.0 mi NNW 9.2 mph - N/A   Partly Cloudy
5:53 PM 84.0 °F 85.8 °F 64.9 °F 53% 30.06 in 10.0 mi NNW 9.2 mph - N/A   Clear
6:53 PM 82.9 °F 84.4 °F 64.0 °F 53% 30.07 in 10.0 mi NNW 5.8 mph - N/A   Clear
7:53 PM 79.0 °F - 64.9 °F 62% 30.09 in 10.0 mi North 4.6 mph - N/A   Clear
8:53 PM 72.0 °F - 64.9 °F 78% 30.10 in 10.0 mi NNW 4.6 mph - N/A   Clear
9:53 PM 73.0 °F - 64.9 °F 76% 30.13 in 10.0 mi North 5.8 mph - N/A   Scattered Clouds
10:53 PM 70.0 °F - 64.0 °F 81% 30.15 in 10.0 mi North 4.6 mph - N/A   Clear
11:53 PM 66.9 °F - 63.0 °F 87% 30.17 in 10.0 mi Calm Calm - N/A   Clear